Starlink 31513

operational
NORAD ID: 59529 Int'l Des: 2024-073 Owner: SPXS Country: US Constellation: starlink
LEOCIRCULAR

About Starlink 31513

Description loading...

Live Position

Loading 3D Globe...

Upcoming Passes

Altitude History

Altitude vs Time

uPlot chart will show altitude changes over time

Two-Line Element Set

1 59529U 24073U 26034.76056457 -.00001446 00000-0 -43035-4 0 9997
2 59529 42.9990 146.3856 0000794 188.7265 171.3573 15.27576344101020
Epoch: Feb 3, 2026 • Age: 20 hours

Current Status

Altitude 492.7 km
Velocity 7.62 km/s
Sub-Earth Point -35.07°S, 23.67°E
Launch Date Apr 17, 2024
Age 1.7 years
Type internet

Technical Details

Classification Payload
Mass 730.00 kg
Dry Mass 700.00 kg
Total Mass 730.00 kg
Length 0.30 m
Diameter 4.10 m
Span 29.00 m
Shape Box + pan
Manufacturer SPXS
Bus Type Starlink V2M
Phase Status In Orbit
Owner/State SPXS/US

Large Constellations

Loading constellations...